Location: York
(31.8935°S, 116.7682°E)
Time: 22:09:32
(UTC+08:00)

Envisat - Pass Details

Date: 17 May 2021
Orbit: 764 x 766 km, 98.1° (Epoch: 13 June)

Event Time Altitude Azimuth Distance (km) Brightness Sun altitude
Rises 05:09:50 0° 6° (N) 3,215 6.4 -22.4°
Reaches altitude 10° 05:12:08 10° 3° (N) 2,297 5.6 -21.9°
Maximum altitude 05:17:10 65° 281° (W) 846 2.9 -20.8°
Enters shadow 05:20:38 21° 203° (SSW) 1,700 4.5 -20.1°
